contact:dominique.lefevre@mio.osupytheas.fr, maurice.libes@osupytheas.fr, didier.mallarino@osupytheas.fr
Project:EMSO http://www.emso-fr.org/EMSO-France
Depth: 2436.0 m
Title:EMSO Ligure Ouest : Data MII capteur AQUADOPP
Date,Latitude,Longitude,X_East,Y_North,Z_Up,Amplitude_X,Amplitude_Y,Amplitude_Z,Batterie,SoundSpeed,Heading,Pitch,Roll,Pressure,TIS,Speed,Direction
, degrees North, degrees East, m.s-1, m.s-1,m.s-1, 1, 1, 1, Volt, m.s-1, degree, degree, degree, dbar, degree_C, m.s-1, degree
2019-07-18T00:01:43,42.805,6.029,-0.044,0.007,0.003,101.0,108.0,100.0,13.3,1505.3,323.4,-0.8,1.8,2470.093,13.33,0.044,279.0
2019-07-18T00:04:44,42.805,6.029,-0.001,0.016,0.046,105.0,108.0,100.0,13.4,1505.3,327.1,-0.7,1.8,2470.09,13.33,0.016,356.4
2019-07-18T00:07:45,42.805,6.029,-0.025,0.0,0.006,103.0,109.0,100.0,13.4,1505.3,327.9,-0.7,1.8,2470.059,13.33,0.025,270.0
2019-07-18T00:10:46,42.805,6.029,-0.001,0.004,0.021,105.0,110.0,100.0,13.4,1505.3,323.6,-0.7,1.8,2470.066,13.33,0.004,346.0
2019-07-18T00:13:47,42.805,6.029,-0.043,0.017,-0.023,104.0,109.0,101.0,13.4,1505.3,326.7,-0.7,1.8,2470.097,13.33,0.046,291.6
2019-07-18T00:16:48,42.805,6.029,-0.036,0.022,-0.008,105.0,109.0,102.0,13.4,1505.3,325.2,-0.8,1.8,2470.112,13.33,0.042,301.4
2019-07-18T00:19:49,42.805,6.029,-0.042,0.006,-0.011,105.0,108.0,101.0,13.3,1505.3,323.0,-0.7,1.8,2470.084,13.33,0.042,278.1
2019-07-18T00:22:50,42.805,6.029,-0.053,-0.001,0.013,105.0,109.0,101.0,13.4,1505.3,326.7,-0.7,1.8,2470.074,13.33,0.053,268.9
2019-07-18T00:25:51,42.805,6.029,-0.033,0.005,0.0,103.0,108.0,101.0,13.4,1505.3,324.6,-0.8,1.8,2470.104,13.33,0.033,278.6
2019-07-18T00:28:52,42.805,6.029,-0.026,0.021,-0.015,105.0,109.0,102.0,13.4,1505.3,327.6,-0.7,1.8,2470.078,13.33,0.033,308.9
2019-07-18T00:31:53,42.805,6.029,-0.048,0.003,-0.041,105.0,108.0,102.0,13.3,1505.3,325.7,-0.7,1.8,2470.08,13.33,0.048,273.6
2019-07-18T00:34:54,42.805,6.029,-0.043,0.004,-0.007,106.0,110.0,101.0,13.4,1505.3,327.8,-0.7,1.8,2470.042,13.33,0.043,275.3
2019-07-18T00:37:55,42.805,6.029,-0.028,0.017,0.029,105.0,110.0,101.0,13.4,1505.3,324.5,-0.7,1.8,2470.053,13.33,0.032,301.3
2019-07-18T00:40:56,42.805,6.029,-0.022,0.002,0.011,105.0,110.0,101.0,13.4,1505.3,326.3,-0.7,1.8,2470.055,13.33,0.022,275.2
2019-07-18T00:43:57,42.805,6.029,-0.047,-0.007,-0.003,105.0,110.0,100.0,13.4,1505.3,326.7,-0.7,1.8,2470.082,13.33,0.047,261.5
2019-07-18T00:46:58,42.805,6.029,-0.043,0.007,0.005,106.0,110.0,103.0,13.4,1505.3,325.2,-0.7,1.8,2470.075,13.33,0.043,279.2
2019-07-18T00:49:59,42.805,6.029,-0.032,0.016,-0.014,105.0,110.0,101.0,13.3,1505.3,328.5,-0.7,1.8,2470.05,13.33,0.035,296.6
2019-07-18T00:53:00,42.805,6.029,-0.004,0.001,0.024,105.0,110.0,102.0,13.4,1505.3,324.3,-0.7,1.8,2470.029,13.33,0.004,284.0
2019-07-18T00:56:01,42.805,6.029,-0.016,-0.008,-0.016,107.0,109.0,101.0,13.3,1505.3,326.2,-0.7,1.8,2470.041,13.33,0.017,243.4
2019-07-18T00:59:02,42.805,6.029,-0.019,0.016,-0.007,105.0,108.0,101.0,13.4,1505.3,323.0,-0.7,1.9,2470.022,13.33,0.024,310.1
2019-07-18T01:02:03,42.805,6.029,-0.045,0.0,0.003,106.0,110.0,102.0,13.3,1505.3,326.9,-0.7,1.8,2470.02,13.33,0.045,270.0
2019-07-18T01:05:04,42.805,6.029,-0.037,0.008,0.0,106.0,109.0,101.0,13.4,1505.3,326.3,-0.7,1.9,2470.03,13.33,0.037,282.2
2019-07-18T01:08:05,42.805,6.029,-0.032,0.021,-0.015,106.0,112.0,102.0,13.4,1505.3,324.4,-0.7,1.9,2470.053,13.33,0.038,303.3
2019-07-18T01:11:06,42.805,6.029,-0.032,0.018,-0.017,105.0,111.0,102.0,13.4,1505.3,327.4,-0.7,1.9,2470.041,13.33,0.036,299.4
2019-07-18T01:14:07,42.805,6.029,-0.027,0.006,0.013,109.0,112.0,102.0,13.3,1505.3,326.6,-0.7,1.8,2470.069,13.33,0.027,282.5
2019-07-18T01:17:08,42.805,6.029,-0.033,0.011,-0.018,107.0,112.0,101.0,13.4,1505.3,328.1,-0.7,1.8,2470.035,13.33,0.034,288.4
2019-07-18T01:20:09,42.805,6.029,-0.076,0.015,-0.019,107.0,110.0,104.0,13.4,1505.3,328.2,-0.7,1.8,2470.0,13.33,0.077,281.2
2019-07-18T01:23:10,42.805,6.029,-0.022,0.012,-0.002,106.0,112.0,101.0,13.4,1505.3,326.7,-0.7,1.8,2470.056,13.33,0.025,298.6
2019-07-18T01:26:11,42.805,6.029,-0.027,0.01,-0.009,108.0,111.0,101.0,13.4,1505.3,325.5,-0.8,1.8,2470.02,13.33,0.028,290.3
2019-07-18T01:29:12,42.805,6.029,-0.069,0.014,-0.014,106.0,111.0,101.0,13.4,1505.3,326.8,-0.7,1.8,2470.092,13.33,0.07,281.5
2019-07-18T01:32:13,42.805,6.029,-0.028,0.029,0.01,108.0,111.0,100.0,13.4,1505.3,324.1,-0.7,1.8,2470.057,13.33,0.04,316.0
2019-07-18T01:35:14,42.805,6.029,-0.045,0.0,-0.04,105.0,110.0,101.0,13.4,1505.3,325.8,-0.7,1.9,2470.024,13.33,0.045,270.0
2019-07-18T01:38:15,42.805,6.029,-0.033,0.005,-0.019,105.0,113.0,100.0,13.4,1505.3,326.6,-0.7,1.9,2470.043,13.33,0.033,278.6
2019-07-18T01:41:16,42.805,6.029,-0.057,0.024,-0.004,105.0,112.0,102.0,13.4,1505.3,324.7,-0.7,1.8,2470.065,13.33,0.061,292.8
2019-07-18T01:44:17,42.805,6.029,-0.039,0.009,-0.015,106.0,111.0,100.0,13.4,1505.3,328.4,-0.7,1.8,2470.052,13.33,0.04,283.0
2019-07-18T01:47:18,42.805,6.029,-0.056,0.016,-0.031,104.0,112.0,101.0,13.3,1505.3,323.7,-0.7,1.9,2470.016,13.33,0.058,285.9
2019-07-18T01:50:19,42.805,6.029,-0.052,0.016,-0.002,105.0,112.0,101.0,13.4,1505.3,326.9,-0.7,1.8,2470.024,13.33,0.054,287.1
2019-07-18T01:53:20,42.805,6.029,-0.059,0.01,0.018,105.0,112.0,101.0,13.4,1505.3,324.9,-0.7,1.9,2470.048,13.33,0.059,279.6
2019-07-18T01:56:21,42.805,6.029,-0.038,0.021,-0.022,104.0,111.0,101.0,13.4,1505.3,323.4,-0.7,1.9,2470.028,13.33,0.043,298.9
2019-07-18T01:59:22,42.805,6.029,-0.071,0.021,-0.023,106.0,112.0,100.0,13.4,1505.3,326.3,-0.7,1.8,2470.044,13.33,0.074,286.5
2019-07-18T02:02:23,42.805,6.029,-0.055,0.007,0.0,105.0,112.0,101.0,13.4,1505.3,324.0,-0.7,1.8,2470.037,13.33,0.055,277.3
2019-07-18T02:05:24,42.805,6.029,-0.037,0.011,-0.01,105.0,112.0,100.0,13.3,1505.3,326.2,-0.7,1.8,2470.039,13.33,0.038,286.6
2019-07-18T02:08:25,42.805,6.029,-0.041,0.01,0.003,106.0,111.0,101.0,13.3,1505.3,327.7,-0.7,1.8,2470.026,13.33,0.042,283.7
2019-07-18T02:11:26,42.805,6.029,-0.033,0.018,-0.024,104.0,112.0,100.0,13.3,1505.3,327.2,-0.7,1.9,2469.995,13.33,0.037,298.6
2019-07-18T02:14:27,42.805,6.029,-0.042,0.001,-0.019,105.0,110.0,101.0,13.4,1505.3,325.6,-0.8,1.9,2469.976,13.33,0.042,271.4
2019-07-18T02:17:28,42.805,6.029,-0.04,0.014,-0.023,106.0,110.0,101.0,13.4,1505.3,324.2,-0.7,1.8,2470.041,13.33,0.042,289.3
2019-07-18T02:20:29,42.805,6.029,-0.032,0.023,-0.021,104.0,112.0,100.0,13.3,1505.3,326.9,-0.7,1.8,2470.035,13.33,0.039,305.7
2019-07-18T02:23:30,42.805,6.029,-0.041,0.0,0.007,104.0,111.0,101.0,13.4,1505.3,326.3,-0.7,1.8,2470.075,13.33,0.041,270.0
2019-07-18T02:26:31,42.805,6.029,-0.056,0.014,0.003,104.0,111.0,102.0,13.4,1505.3,326.1,-0.7,1.8,2470.038,13.33,0.057,284.0
2019-07-18T02:29:32,42.805,6.029,-0.042,0.015,0.006,103.0,111.0,101.0,13.4,1505.3,327.7,-0.7,1.9,2469.999,13.33,0.044,289.6
2019-07-18T02:32:33,42.805,6.029,-0.052,0.022,-0.029,106.0,111.0,101.0,13.4,1505.3,323.4,-0.8,1.8,2470.004,13.33,0.056,292.9
2019-07-18T02:35:34,42.805,6.029,-0.033,0.015,0.004,106.0,112.0,100.0,13.3,1505.3,324.3,-0.7,1.8,2470.007,13.33,0.036,294.4
2019-07-18T02:38:35,42.805,6.029,-0.035,0.019,-0.008,105.0,112.0,101.0,13.3,1505.3,324.8,-0.7,1.8,2470.002,13.33,0.039,298.5
2019-07-18T02:41:36,42.805,6.029,-0.043,0.003,-0.023,104.0,112.0,101.0,13.4,1505.3,326.8,-0.7,1.8,2469.993,13.33,0.043,274.0
2019-07-18T02:44:37,42.805,6.029,-0.045,0.005,-0.001,108.0,112.0,101.0,13.4,1505.3,324.0,-0.7,1.8,2469.991,13.33,0.045,276.3
2019-07-18T02:47:38,42.805,6.029,-0.044,0.009,-0.028,105.0,110.0,101.0,13.4,1505.3,322.8,-0.8,1.8,2469.989,13.33,0.044,281.6
2019-07-18T02:50:39,42.805,6.029,-0.07,0.008,-0.028,104.0,111.0,101.0,13.4,1505.3,324.1,-0.7,1.8,2470.101,13.33,0.07,276.5
2019-07-18T02:53:40,42.805,6.029,-0.056,0.02,0.0,104.0,112.0,101.0,13.4,1505.3,325.4,-0.7,1.9,2470.003,13.33,0.059,289.6
2019-07-18T02:56:41,42.805,6.029,-0.028,0.017,0.014,105.0,112.0,101.0,13.3,1505.3,327.0,-0.8,1.8,2470.07,13.33,0.032,301.3
2019-07-18T02:59:42,42.805,6.029,-0.03,0.013,0.007,105.0,112.0,101.0,13.3,1505.3,323.2,-0.7,1.8,2469.987,13.33,0.032,293.4
2019-07-18T03:02:43,42.805,6.029,-0.021,0.025,0.001,105.0,110.0,101.0,13.4,1505.3,326.5,-0.7,1.9,2470.024,13.33,0.032,320.0
2019-07-18T03:05:44,42.805,6.029,-0.051,0.022,0.008,104.0,112.0,101.0,13.3,1505.3,326.8,-0.7,1.8,2470.032,13.33,0.055,293.3
2019-07-18T03:08:45,42.805,6.029,-0.044,0.018,-0.031,104.0,110.0,101.0,13.4,1505.3,324.4,-0.7,1.9,2470.016,13.33,0.047,292.2
2019-07-18T03:11:46,42.805,6.029,-0.047,0.018,-0.012,104.0,111.0,100.0,13.4,1505.3,328.1,-0.7,1.9,2469.953,13.33,0.05,291.0
2019-07-18T03:14:47,42.805,6.029,-0.053,0.012,-0.015,106.0,110.0,102.0,13.4,1505.3,322.6,-0.7,1.8,2469.989,13.33,0.054,282.8
2019-07-18T03:17:48,42.805,6.029,-0.029,0.012,0.012,104.0,113.0,100.0,13.4,1505.3,326.4,-0.7,1.8,2469.984,13.33,0.031,292.5
2019-07-18T03:20:49,42.805,6.029,-0.036,0.012,0.001,105.0,109.0,100.0,13.3,1505.3,324.7,-0.7,1.9,2470.013,13.33,0.037,288.4
2019-07-18T03:23:50,42.805,6.029,-0.045,0.026,0.007,103.0,110.0,100.0,13.4,1505.3,324.2,-0.7,1.8,2470.007,13.33,0.051,300.0
2019-07-18T03:26:51,42.805,6.029,-0.035,0.006,-0.037,102.0,111.0,99.0,13.4,1505.3,328.1,-0.7,1.9,2470.01,13.33,0.035,279.7
2019-07-18T03:29:52,42.805,6.029,-0.047,0.001,-0.001,102.0,109.0,100.0,13.3,1505.3,327.9,-0.7,1.8,2470.039,13.33,0.047,271.2
2019-07-18T03:32:53,42.805,6.029,-0.047,0.021,-0.005,103.0,109.0,100.0,13.4,1505.3,322.9,-0.8,1.8,2470.015,13.33,0.051,294.1
2019-07-18T03:35:54,42.805,6.029,-0.047,-0.004,-0.042,106.0,110.0,100.0,13.3,1505.3,324.7,-0.7,1.9,2470.044,13.33,0.047,265.1
2019-07-18T03:38:55,42.805,6.029,-0.036,0.005,-0.005,103.0,111.0,101.0,13.4,1505.3,323.1,-0.7,1.8,2469.981,13.33,0.036,277.9
2019-07-18T03:41:56,42.805,6.029,-0.045,0.007,0.014,105.0,110.0,100.0,13.4,1505.3,323.3,-0.7,1.8,2470.022,13.33,0.045,278.8
2019-07-18T03:44:57,42.805,6.029,-0.014,0.024,0.018,105.0,111.0,100.0,13.3,1505.3,327.1,-0.7,1.8,2470.007,13.33,0.027,329.7
2019-07-18T03:47:58,42.805,6.029,-0.043,0.017,-0.002,104.0,110.0,100.0,13.4,1505.3,323.9,-0.8,1.8,2469.991,13.33,0.046,291.6
2019-07-18T03:50:59,42.805,6.029,-0.055,0.02,-0.032,104.0,111.0,101.0,13.4,1505.3,326.0,-0.7,1.8,2470.014,13.33,0.058,290.0
2019-07-18T03:54:00,42.805,6.029,-0.05,0.013,-0.024,105.0,110.0,100.0,13.3,1505.3,325.0,-0.7,1.9,2470.045,13.33,0.051,284.6
2019-07-18T03:57:01,42.805,6.029,-0.047,0.033,-0.013,104.0,111.0,103.0,13.4,1505.3,325.5,-0.7,1.8,2470.007,13.33,0.057,305.1
2019-07-18T04:00:02,42.805,6.029,-0.055,0.029,0.013,104.0,111.0,100.0,13.4,1505.3,327.9,-0.8,1.9,2470.056,13.33,0.062,297.8
2019-07-18T04:03:03,42.805,6.029,-0.034,0.017,-0.019,106.0,113.0,100.0,13.4,1505.3,322.9,-0.7,1.8,2470.046,13.33,0.038,296.6
2019-07-18T04:06:04,42.805,6.029,-0.07,-0.008,-0.034,103.0,110.0,100.0,13.3,1505.3,325.8,-0.7,1.8,2470.042,13.33,0.07,263.5
2019-07-18T04:09:05,42.805,6.029,-0.055,-0.004,-0.036,103.0,111.0,100.0,13.3,1505.3,325.4,-0.7,1.9,2470.071,13.33,0.055,265.8
2019-07-18T04:12:06,42.805,6.029,-0.045,0.031,0.003,103.0,109.0,100.0,13.4,1505.3,326.7,-0.7,1.8,2470.015,13.33,0.054,304.6
2019-07-18T04:15:07,42.805,6.029,-0.071,0.025,-0.042,105.0,110.0,100.0,13.4,1505.3,327.4,-0.7,1.8,2470.043,13.33,0.075,289.4
2019-07-18T04:18:08,42.805,6.029,-0.015,0.012,0.004,105.0,110.0,102.0,13.4,1505.3,326.0,-0.7,1.8,2470.034,13.33,0.019,308.7
2019-07-18T04:21:09,42.805,6.029,-0.04,0.002,-0.037,107.0,111.0,101.0,13.4,1505.3,324.6,-0.7,1.8,2470.064,13.33,0.04,272.9
2019-07-18T04:24:10,42.805,6.029,-0.029,0.0,-0.011,106.0,110.0,102.0,13.3,1505.3,324.7,-0.7,1.8,2470.027,13.33,0.028,270.0
2019-07-18T04:27:11,42.805,6.029,-0.035,0.001,0.015,105.0,110.0,101.0,13.4,1505.3,326.4,-0.7,1.9,2470.046,13.33,0.035,271.6
2019-07-18T04:30:12,42.805,6.029,-0.047,0.006,-0.028,106.0,110.0,100.0,13.4,1505.3,324.7,-0.7,1.8,2470.034,13.33,0.047,277.3
2019-07-18T04:33:13,42.805,6.029,-0.039,0.035,0.009,104.0,112.0,101.0,13.4,1505.3,325.3,-0.7,1.8,2470.042,13.33,0.052,311.9
2019-07-18T04:36:15,42.805,6.029,-0.08,0.004,-0.045,105.0,110.0,101.0,13.4,1505.3,326.8,-0.7,1.8,2470.03,13.33,0.08,272.9
2019-07-18T04:39:15,42.805,6.029,-0.042,0.018,0.004,105.0,111.0,102.0,13.3,1505.3,327.3,-0.7,1.8,2470.051,13.33,0.045,293.2
2019-07-18T04:42:16,42.805,6.029,-0.061,0.011,-0.015,104.0,111.0,101.0,13.4,1505.3,323.9,-0.7,1.8,2470.054,13.33,0.061,280.2
2019-07-18T04:45:17,42.805,6.029,-0.042,0.016,-0.007,106.0,111.0,100.0,13.4,1505.3,324.9,-0.8,1.8,2470.067,13.33,0.044,290.9
2019-07-18T04:48:18,42.805,6.029,-0.022,0.017,0.025,105.0,111.0,101.0,13.4,1505.3,326.7,-0.7,1.8,2470.058,13.33,0.027,307.7
2019-07-18T04:51:19,42.805,6.029,-0.036,0.023,0.007,104.0,113.0,101.0,13.4,1505.3,327.3,-0.8,1.8,2470.076,13.33,0.042,302.6
2019-07-18T04:54:20,42.805,6.029,-0.048,0.021,-0.024,104.0,113.0,101.0,13.3,1505.3,324.5,-0.7,1.8,2470.056,13.33,0.052,293.6
2019-07-18T04:57:21,42.805,6.029,-0.038,0.008,0.006,104.0,113.0,100.0,13.3,1505.3,325.4,-0.7,1.8,2470.092,13.33,0.038,281.9
2019-07-18T05:00:22,42.805,6.029,-0.023,0.002,0.012,106.0,112.0,101.0,13.3,1505.3,324.4,-0.7,1.8,2470.072,13.33,0.023,275.0
2019-07-18T05:03:23,42.805,6.029,-0.052,0.014,-0.01,106.0,114.0,101.0,13.4,1505.3,325.6,-0.7,1.8,2470.026,13.33,0.053,285.1
2019-07-18T05:06:24,42.805,6.029,-0.036,0.025,0.002,106.0,113.0,101.0,13.4,1505.3,324.9,-0.7,1.8,2470.056,13.33,0.043,304.8
2019-07-18T05:09:25,42.805,6.029,-0.024,0.02,-0.002,105.0,114.0,101.0,13.4,1505.3,326.3,-0.7,1.9,2470.087,13.33,0.031,309.8
2019-07-18T05:12:26,42.805,6.029,-0.045,0.0,-0.026,106.0,113.0,101.0,13.4,1505.3,323.7,-0.7,1.9,2470.059,13.33,0.045,270.0
2019-07-18T05:15:27,42.805,6.029,-0.045,0.0,-0.003,105.0,114.0,101.0,13.4,1505.3,326.6,-0.7,1.8,2470.061,13.33,0.045,270.0
2019-07-18T05:18:28,42.805,6.029,-0.021,0.01,-0.001,106.0,113.0,102.0,13.4,1505.3,326.7,-0.7,1.8,2470.046,13.33,0.023,295.5
2019-07-18T05:21:29,42.805,6.029,-0.034,0.018,-0.032,105.0,112.0,101.0,13.3,1505.3,325.3,-0.7,1.8,2470.135,13.33,0.038,297.9
2019-07-18T05:24:30,42.805,6.029,-0.063,0.0,-0.023,107.0,113.0,100.0,13.3,1505.3,324.6,-0.7,1.8,2470.022,13.33,0.062,270.0
2019-07-18T05:27:31,42.805,6.029,-0.038,0.046,-0.03,106.0,113.0,100.0,13.3,1505.3,326.3,-0.7,1.8,2470.06,13.33,0.059,320.4
2019-07-18T05:30:32,42.805,6.029,-0.051,0.033,-0.001,104.0,115.0,100.0,13.3,1505.3,326.4,-0.7,1.8,2470.064,13.33,0.06,302.9
2019-07-18T05:33:33,42.805,6.029,-0.014,0.03,-0.016,105.0,115.0,102.0,13.4,1505.3,326.9,-0.7,1.8,2470.055,13.33,0.033,335.0
2019-07-18T05:36:34,42.805,6.029,-0.022,0.025,0.002,106.0,114.0,101.0,13.3,1505.3,324.0,-0.7,1.8,2470.071,13.33,0.033,318.7
2019-07-18T05:39:35,42.805,6.029,-0.045,0.016,0.0,107.0,113.0,101.0,13.4,1505.3,326.2,-0.7,1.8,2470.05,13.33,0.047,289.6
2019-07-18T05:42:36,42.805,6.029,-0.046,0.01,-0.015,105.0,113.0,102.0,13.4,1505.3,326.4,-0.7,1.9,2470.074,13.33,0.047,282.3
2019-07-18T05:45:37,42.805,6.029,-0.019,0.011,0.029,106.0,112.0,102.0,13.4,1505.3,323.2,-0.7,1.8,2470.089,13.33,0.021,300.1
2019-07-18T05:48:38,42.805,6.029,-0.047,0.011,-0.024,106.0,113.0,102.0,13.4,1505.3,322.9,-0.7,1.8,2470.089,13.33,0.048,283.2
2019-07-18T05:51:39,42.805,6.029,-0.039,-0.003,-0.006,104.0,112.0,101.0,13.3,1505.3,326.3,-0.7,1.8,2470.091,13.33,0.039,265.6
2019-07-18T05:54:40,42.805,6.029,-0.03,0.011,0.002,107.0,112.0,102.0,13.3,1505.3,324.8,-0.7,1.8,2470.15,13.33,0.031,290.1
2019-07-18T05:57:41,42.805,6.029,-0.033,-0.014,-0.01,109.0,112.0,101.0,13.4,1505.3,325.0,-0.7,1.8,2470.081,13.33,0.035,247.0
2019-07-18T06:00:42,42.805,6.029,-0.031,0.024,-0.026,105.0,114.0,101.0,13.4,1505.3,326.9,-0.7,1.8,2470.094,13.33,0.039,307.7
2019-07-18T06:03:43,42.805,6.029,-0.043,0.012,0.008,107.0,111.0,102.0,13.3,1505.3,324.1,-0.7,1.8,2470.142,13.33,0.044,285.6
2019-07-18T06:06:44,42.805,6.029,-0.032,0.012,0.029,104.0,113.0,102.0,13.3,1505.3,326.6,-0.7,1.9,2470.133,13.33,0.034,290.6
2019-07-18T06:09:45,42.805,6.029,-0.018,0.023,0.013,106.0,113.0,100.0,13.3,1505.3,327.2,-0.7,1.9,2470.096,13.33,0.029,322.0
2019-07-18T06:12:46,42.805,6.029,-0.029,0.018,-0.036,105.0,113.0,101.0,13.4,1505.3,324.3,-0.7,1.9,2470.117,13.33,0.034,301.8
2019-07-18T06:15:47,42.805,6.029,-0.038,0.014,0.0,105.0,113.0,102.0,13.4,1505.3,323.3,-0.7,1.8,2470.08,13.33,0.04,290.2
2019-07-18T06:18:48,42.805,6.029,-0.016,0.008,0.017,108.0,112.0,101.0,13.4,1505.3,325.7,-0.7,1.8,2470.108,13.33,0.017,296.6
2019-07-18T06:21:49,42.805,6.029,-0.014,0.02,-0.025,106.0,113.0,102.0,13.4,1505.4,324.4,-0.7,1.8,2470.076,13.34,0.024,325.0
2019-07-18T06:24:50,42.805,6.029,-0.02,0.016,-0.008,105.0,113.0,102.0,13.4,1505.3,328.3,-0.7,1.8,2470.1,13.33,0.025,308.7
2019-07-18T06:27:51,42.805,6.029,0.0,0.021,0.0,107.0,112.0,101.0,13.4,1505.4,323.7,-0.7,1.8,2470.166,13.34,0.021,0.0
2019-07-18T06:30:52,42.805,6.029,-0.028,0.013,0.032,105.0,112.0,101.0,13.3,1505.3,326.9,-0.7,1.8,2470.127,13.33,0.03,294.9
2019-07-18T06:33:53,42.805,6.029,-0.005,0.002,0.013,106.0,113.0,102.0,13.4,1505.3,325.6,-0.7,1.8,2470.096,13.33,0.005,291.8
2019-07-18T06:36:54,42.805,6.029,-0.04,0.018,-0.023,105.0,113.0,101.0,13.4,1505.3,327.0,-0.7,1.8,2470.116,13.33,0.043,294.2
2019-07-18T06:39:55,42.805,6.029,-0.048,-0.004,-0.016,105.0,112.0,102.0,13.3,1505.3,324.0,-0.7,1.8,2470.123,13.33,0.048,265.2
2019-07-18T06:42:56,42.805,6.029,-0.047,0.019,0.021,103.0,113.0,101.0,13.3,1505.3,326.4,-0.7,1.8,2470.14,13.33,0.05,292.0
2019-07-18T06:45:57,42.805,6.029,-0.022,0.013,0.024,106.0,114.0,100.0,13.4,1505.3,323.0,-0.7,1.8,2470.149,13.33,0.025,300.6
2019-07-18T06:48:58,42.805,6.029,-0.041,0.012,0.008,106.0,111.0,100.0,13.3,1505.3,326.6,-0.7,1.8,2470.101,13.33,0.042,286.3
2019-07-18T06:51:59,42.805,6.029,-0.056,0.02,-0.028,105.0,113.0,101.0,13.3,1505.3,324.5,-0.7,1.8,2470.123,13.33,0.059,289.6
2019-07-18T06:55:00,42.805,6.029,-0.027,0.026,0.008,104.0,111.0,101.0,13.3,1505.3,324.5,-0.7,1.8,2470.148,13.33,0.037,313.9
2019-07-18T06:58:01,42.805,6.029,-0.017,0.001,-0.016,105.0,112.0,102.0,13.3,1505.3,327.3,-0.7,1.8,2470.121,13.33,0.017,273.4
2019-07-18T07:01:02,42.805,6.029,-0.022,0.004,-0.021,104.0,112.0,102.0,13.4,1505.3,323.0,-0.7,1.8,2470.149,13.33,0.022,280.3
2019-07-18T07:04:03,42.805,6.029,-0.009,0.01,0.04,105.0,113.0,101.0,13.4,1505.3,325.0,-0.7,1.8,2470.171,13.33,0.013,318.0
2019-07-18T07:07:04,42.805,6.029,-0.024,0.01,-0.013,105.0,112.0,101.0,13.3,1505.3,327.8,-0.7,1.8,2470.123,13.33,0.026,292.6
2019-07-18T07:10:05,42.805,6.029,-0.067,0.008,-0.01,106.0,113.0,102.0,13.4,1505.3,326.4,-0.7,1.8,2470.17,13.33,0.067,276.8
2019-07-18T07:13:06,42.805,6.029,-0.036,0.021,-0.014,105.0,112.0,101.0,13.4,1505.3,323.9,-0.7,1.8,2470.133,13.33,0.041,300.3
2019-07-18T07:16:07,42.805,6.029,-0.053,0.015,-0.018,105.0,111.0,102.0,13.4,1505.3,327.8,-0.7,1.8,2470.127,13.33,0.055,285.8
2019-07-18T07:19:08,42.805,6.029,-0.019,0.031,-0.053,106.0,111.0,100.0,13.4,1505.3,323.4,-0.7,1.9,2470.12,13.33,0.036,328.5
2019-07-18T07:22:09,42.805,6.029,-0.028,0.022,-0.021,104.0,111.0,101.0,13.4,1505.3,325.7,-0.7,1.8,2470.113,13.33,0.035,308.2
2019-07-18T07:25:10,42.805,6.029,-0.012,0.006,0.003,106.0,113.0,101.0,13.4,1505.3,328.2,-0.7,1.8,2470.14,13.33,0.013,296.6
2019-07-18T07:28:11,42.805,6.029,-0.021,0.016,0.019,107.0,112.0,101.0,13.4,1505.3,322.7,-0.7,1.8,2470.082,13.33,0.026,307.3
2019-07-18T07:31:12,42.805,6.029,-0.036,0.008,-0.016,104.0,112.0,101.0,13.3,1505.3,326.3,-0.7,1.8,2470.152,13.33,0.036,282.5
2019-07-18T07:34:13,42.805,6.029,-0.011,0.015,0.031,107.0,111.0,100.0,13.4,1505.3,327.4,-0.7,1.8,2470.109,13.33,0.018,323.7
2019-07-18T07:37:14,42.805,6.029,-0.025,0.021,-0.004,104.0,113.0,100.0,13.3,1505.3,323.0,-0.7,1.8,2470.123,13.33,0.032,310.0
2019-07-18T07:40:15,42.805,6.029,-0.031,0.031,0.013,104.0,113.0,99.0,13.4,1505.3,327.0,-0.7,1.8,2470.182,13.33,0.043,315.0
2019-07-18T07:43:16,42.805,6.029,-0.015,0.01,0.018,105.0,111.0,100.0,13.4,1505.3,325.9,-0.7,1.8,2470.13,13.33,0.018,303.7
2019-07-18T07:46:17,42.805,6.029,-0.022,0.005,-0.003,105.0,112.0,101.0,13.4,1505.3,325.2,-0.7,1.8,2470.144,13.33,0.022,282.8
2019-07-18T07:49:18,42.805,6.029,-0.031,0.013,-0.006,105.0,112.0,101.0,13.4,1505.3,326.5,-0.7,1.8,2470.14,13.33,0.033,292.7
2019-07-18T07:52:19,42.805,6.029,-0.022,0.012,0.001,106.0,112.0,101.0,13.4,1505.3,326.7,-0.7,1.9,2470.144,13.33,0.025,298.6
2019-07-18T07:55:20,42.805,6.029,-0.024,0.003,0.003,104.0,113.0,100.0,13.3,1505.3,325.8,-0.7,1.9,2470.139,13.33,0.024,277.1
2019-07-18T07:58:21,42.805,6.029,-0.012,0.021,0.001,103.0,112.0,100.0,13.4,1505.3,324.8,-0.7,1.8,2470.173,13.33,0.024,330.3
2019-07-18T08:01:22,42.805,6.029,-0.05,0.011,-0.018,104.0,112.0,100.0,13.3,1505.4,324.5,-0.8,1.8,2470.129,13.34,0.051,282.4
2019-07-18T08:04:23,42.805,6.029,-0.03,0.01,-0.022,105.0,111.0,100.0,13.4,1505.3,327.9,-0.7,1.8,2470.129,13.33,0.031,288.4
2019-07-18T08:07:24,42.805,6.029,-0.014,0.019,0.03,105.0,111.0,100.0,13.4,1505.3,323.8,-0.7,1.8,2470.14,13.33,0.023,323.6
2019-07-18T08:10:25,42.805,6.029,-0.022,0.03,0.007,105.0,111.0,101.0,13.4,1505.3,324.8,-0.7,1.8,2470.14,13.33,0.037,323.7
2019-07-18T08:13:26,42.805,6.029,-0.022,0.001,-0.013,104.0,111.0,102.0,13.3,1505.3,323.5,-0.7,1.9,2470.168,13.33,0.022,272.6
2019-07-18T08:16:27,42.805,6.029,-0.002,-0.001,0.015,105.0,112.0,101.0,13.4,1505.3,328.1,-0.7,1.9,2470.154,13.33,0.002,243.4
2019-07-18T08:19:28,42.805,6.029,-0.033,-0.002,0.001,105.0,111.0,102.0,13.4,1505.3,325.0,-0.7,1.8,2470.173,13.33,0.033,266.5
2019-07-18T08:22:29,42.805,6.029,-0.027,0.015,-0.007,105.0,112.0,101.0,13.3,1505.3,324.5,-0.7,1.9,2470.116,13.33,0.03,299.1
2019-07-18T08:25:30,42.805,6.029,-0.047,-0.015,-0.026,105.0,112.0,102.0,13.3,1505.3,326.4,-0.7,1.8,2470.091,13.33,0.049,252.3
2019-07-18T08:28:31,42.805,6.029,-0.016,0.005,0.0,107.0,112.0,101.0,13.4,1505.4,325.7,-0.7,1.9,2470.109,13.34,0.016,287.4
2019-07-18T08:31:32,42.805,6.029,-0.024,0.022,-0.015,106.0,112.0,102.0,13.4,1505.3,323.8,-0.7,1.8,2470.085,13.33,0.032,312.5
2019-07-18T08:34:33,42.805,6.029,-0.007,0.001,0.024,104.0,112.0,101.0,13.4,1505.3,326.0,-0.7,1.9,2470.183,13.33,0.007,278.1
2019-07-18T08:37:34,42.805,6.029,-0.026,0.03,-0.044,105.0,112.0,100.0,13.4,1505.3,325.4,-0.7,1.8,2470.137,13.33,0.039,319.1
2019-07-18T08:40:35,42.805,6.029,-0.016,0.024,-0.02,106.0,112.0,100.0,13.4,1505.3,324.8,-0.7,1.8,2470.137,13.33,0.028,326.3
2019-07-18T08:43:36,42.805,6.029,-0.057,0.015,-0.039,105.0,111.0,102.0,13.4,1505.3,327.1,-0.7,1.8,2470.093,13.33,0.058,284.7
2019-07-18T08:46:37,42.805,6.029,-0.017,-0.001,-0.011,103.0,112.0,101.0,13.4,1505.3,326.8,-0.7,1.8,2470.114,13.33,0.017,266.6
2019-07-18T08:49:38,42.805,6.029,-0.022,0.012,-0.008,106.0,112.0,100.0,13.4,1505.3,324.8,-0.7,1.9,2470.148,13.33,0.025,298.6
2019-07-18T08:52:39,42.805,6.029,-0.015,0.02,-0.018,105.0,112.0,101.0,13.3,1505.3,326.6,-0.7,1.8,2470.086,13.33,0.025,323.1
2019-07-18T08:55:40,42.805,6.029,-0.022,0.02,-0.012,107.0,113.0,100.0,13.3,1505.3,327.1,-0.7,1.9,2470.088,13.33,0.029,312.3
2019-07-18T08:58:41,42.805,6.029,-0.023,-0.001,0.007,104.0,112.0,100.0,13.4,1505.3,324.2,-0.7,1.8,2470.147,13.33,0.023,267.5
2019-07-18T09:01:42,42.805,6.029,-0.033,0.016,-0.007,100.0,111.0,101.0,13.3,1505.3,326.8,-0.7,1.8,2470.142,13.33,0.036,295.9
2019-07-18T09:04:43,42.805,6.029,0.011,0.024,-0.007,103.0,110.0,100.0,13.3,1505.3,328.2,-0.7,1.9,2470.091,13.33,0.026,24.6
2019-07-18T09:07:44,42.805,6.029,-0.029,0.004,0.0,107.0,113.0,101.0,13.4,1505.3,323.4,-0.7,1.8,2470.083,13.33,0.029,277.8
2019-07-18T09:10:45,42.805,6.029,-0.025,0.0,-0.018,106.0,112.0,99.0,13.4,1505.3,324.8,-0.7,1.8,2470.083,13.33,0.025,270.0
2019-07-18T09:13:46,42.805,6.029,-0.033,0.006,-0.082,104.0,111.0,102.0,13.4,1505.3,327.5,-0.8,1.8,2470.134,13.33,0.033,280.3
2019-07-18T09:16:47,42.805,6.029,-0.039,0.018,0.001,104.0,110.0,100.0,13.3,1505.3,325.2,-0.7,1.9,2470.136,13.33,0.042,294.8
2019-07-18T09:19:48,42.805,6.029,-0.025,0.009,-0.006,102.0,110.0,99.0,13.4,1505.3,324.2,-0.8,1.8,2470.142,13.33,0.026,289.8
2019-07-18T09:22:49,42.805,6.029,-0.029,-0.001,-0.022,103.0,108.0,99.0,13.4,1505.3,325.6,-0.8,1.8,2470.082,13.33,0.029,268.0
2019-07-18T09:25:50,42.805,6.029,0.018,0.012,0.022,101.0,110.0,99.0,13.4,1505.4,324.0,-0.7,1.8,2470.085,13.34,0.021,56.3
2019-07-18T09:28:51,42.805,6.029,-0.02,0.019,-0.001,105.0,109.0,99.0,13.4,1505.4,326.4,-0.7,1.8,2470.092,13.34,0.027,313.5